Change the Weather History Date:

Thursday, May 9, 2013

  Actual Average Record
Temperature  
Mean Temperature 77 °F 79 °F  
Max Temperature 85 °F 85 °F 96 °F (1841)
Min Temperature 69 °F 73 °F 50 °F (1928)
Degree Days  
Heating Degree Days 0 0  
Month to date heating degree days 0 0  
Since 1 July heating degree days 85 112  
Cooling Degree Days 12 14  
Month to date cooling degree days 97 122  
Year to date cooling degree days 1067 1069  
Growing Degree Days 26 (Base 50)    
Moisture  
Dew Point 67 °F    
Average Humidity 70    
Maximum Humidity 85    
Minimum Humidity 54    
Precipitation  
Precipitation 0.01 in 0.11 in 6.22 in (1919)
Month to date precipitation 6.08 0.73  
Year to date precipitation 15.21 13.57  
Snow  
Snow 0.00 in - - ()
Month to date snowfall 0.0  
Since 1 July snowfall 0.0  
Snow Depth 0.00 in    
Sea Level Pressure  
Sea Level Pressure 30.11 in    
Wind  
Wind Speed 6 mph (ESE)    
Max Wind Speed 15 mph    
Max Gust Speed 20 mph    
Visibility 10 miles    
Events Rain , Thunderstorm    
T = Trace of Precipitation, MM = Missing Value Source: NWS Daily Summary

Daily Weather History Graph

Daily Weather History Graph

Search for Another Location

Airport or City:

Trip Planner

Search our weather history database for the weather conditions in past years. The results will help you decide how hot, cold, wet, or windy it might be!

Date:

Astronomy

May. 09, 2013 Rise Set
Actual Time 6:37 AM EDT 7:56 PM EDT
Civil Twilight 6:13 AM EDT 8:21 PM EDT
Nautical Twilight 5:43 AM EDT 8:50 PM EDT
Astronomical Twilight 5:13 AM EDT 9:21 PM EDT
Moon 6:18 AM EDT (5/9) 7:50 PM EDT (5/9)
Length of Visible Light 14h 08m
Length of Day
13h 18m
Waning Crescent, 0% of the Moon is Illuminated
May 9
Waning Crescent
May 9
New
May 18
First Quarter
May 25
Full
May 31
Last Quarter

Hourly Weather History & Observations

Time (EDT) Temp. Heat Index Dew Point Humidity Pressure Visibility Wind Dir Wind Speed Gust Speed Precip Events Conditions
12:53 AM 75.0 °F - 57.0 °F 53% 30.12 in 10.0 mi WNW 6.9 mph - N/A   Clear
1:53 AM 73.0 °F - 57.0 °F 57% 30.10 in 10.0 mi WNW 4.6 mph - N/A   Clear
2:53 AM 71.1 °F - 57.9 °F 63% 30.09 in 10.0 mi WNW 3.5 mph - N/A   Clear
3:53 AM 70.0 °F - 60.1 °F 71% 30.08 in 10.0 mi NW 3.5 mph - N/A   Clear
4:53 AM 69.1 °F - 61.0 °F 75% 30.08 in 10.0 mi Calm Calm - N/A   Clear
5:53 AM 70.0 °F - 61.0 °F 73% 30.08 in 10.0 mi NW 4.6 mph - N/A   Clear
6:53 AM 69.1 °F - 61.0 °F 75% 30.10 in 10.0 mi NNW 5.8 mph - N/A   Clear
7:53 AM 71.1 °F - 61.0 °F 70% 30.12 in 10.0 mi NNW 4.6 mph - N/A   Clear
8:53 AM 75.0 °F - 62.1 °F 64% 30.12 in 10.0 mi Calm Calm - N/A   Clear
9:53 AM 79.0 °F - 64.0 °F 60% 30.14 in 10.0 mi Calm Calm - N/A   Clear
10:53 AM 81.0 °F 83.3 °F 66.9 °F 62% 30.14 in 10.0 mi Variable 5.8 mph - N/A   Clear
11:53 AM 82.9 °F 85.8 °F 68.0 °F 60% 30.14 in 10.0 mi East 8.1 mph - N/A   Partly Cloudy
12:53 PM 82.9 °F 87.0 °F 70.0 °F 65% 30.14 in 10.0 mi ESE 10.4 mph - N/A   Partly Cloudy
1:53 PM 84.9 °F 90.1 °F 71.1 °F 63% 30.13 in 10.0 mi ESE 10.4 mph - N/A   Clear
2:53 PM 84.0 °F 89.6 °F 72.0 °F 67% 30.11 in 10.0 mi ESE 11.5 mph - N/A   Partly Cloudy
3:53 PM 82.0 °F 86.7 °F 72.0 °F 71% 30.08 in 10.0 mi ESE 5.8 mph - N/A   Scattered Clouds
4:53 PM 82.0 °F 87.4 °F 73.0 °F 74% 30.07 in 10.0 mi ESE 12.7 mph - 0.00 in Rain Light Rain
5:00 PM 80.6 °F 85.4 °F 73.4 °F 79% 30.08 in 10.0 mi SE 9.2 mph - 0.00 in Rain , Thunderstorm Light Thunderstorms and Rain
5:53 PM 81.0 °F 86.2 °F 73.9 °F 79% 30.08 in 10.0 mi SE 9.2 mph - 0.01 in Rain Light Rain
6:53 PM 81.0 °F 85.2 °F 72.0 °F 74% 30.07 in 10.0 mi SE 9.2 mph - 0.00 in   Scattered Clouds
7:53 PM 80.1 °F 84.5 °F 73.9 °F 81% 30.09 in 10.0 mi SE 10.4 mph - N/A   Scattered Clouds
8:53 PM 79.0 °F - 73.0 °F 82% 30.10 in 10.0 mi SE 8.1 mph - N/A   Partly Cloudy
9:53 PM 79.0 °F - 73.0 °F 82% 30.12 in 10.0 mi SE 4.6 mph - N/A   Partly Cloudy
10:53 PM 78.1 °F - 73.0 °F 84% 30.12 in 10.0 mi SE 3.5 mph - N/A   Partly Cloudy
11:53 PM 79.0 °F - 73.0 °F 82% 30.13 in 10.0 mi SE 6.9 mph - N/A   Scattered Clouds